FW8003 Weather Reports


Display with metric or nautical units.
time (UTC)temp
F
wind
direction
speed
MPH
gust
MPH
rain 1hr
in
rain 24hr
in
rain mn
in
humidity
%
barometer
mb
20260509212521 89 0 0.0 1.0 0.00 0.00 0.00 70 1006.7
20260509212015 87 0 0.0 2.0 0.00 0.00 0.00 72 1006.7
20260509211545 86 0 0.0 2.0 0.00 0.00 0.00 75 1006.8
20260509211018 86 0 0.0 0.0 0.00 0.00 0.00 75 1006.9
20260509210519 86 0 0.0 1.0 0.00 0.00 0.00 75 1006.9
20260509210034 85 0 0.0 1.0 0.00 0.00 0.00 74 1007.1
20260509205518 85 0 0.0 1.0 0.00 0.00 0.00 76 1007.2
20260509205015 86 0 0.0 1.0 0.00 0.00 0.00 74 1007.1
20260509204535 86 0 0.0 1.0 0.00 0.00 0.00 73 1007.3
20260509204019 86 0 0.0 0.0 0.00 0.00 0.00 73 1007.3
20260509203515 86 0 0.0 1.0 0.00 0.00 0.00 75 1007.3
20260509203041 86 0 0.0 1.0 0.00 0.00 0.00 73 1007.4
20260509202516 86 0 0.0 3.0 0.00 0.00 0.00 73 1007.4
20260509202016 86 0 0.0 3.0 0.00 0.00 0.00 73 1007.4
20260509201535 86 188 1.0 3.0 0.00 0.00 0.00 72 1007.4
20260509201021 87 0 0.0 4.0 0.00 0.00 0.00 72 1007.4
20260509200515 88 121 1.0 4.0 0.00 0.00 0.00 69 1007.4
20260509200044 88 0 0.0 2.0 0.00 0.00 0.00 71 1007.5
20260509195520 88 0 0.0 2.0 0.00 0.00 0.00 70 1007.5
20260509195015 87 0 0.0 2.0 0.00 0.00 0.00 72 1007.6
20260509194538 87 0 0.0 2.0 0.00 0.00 0.00 71 1007.7
20260509194016 87 5 0.0 3.0 0.00 0.00 0.00 77 1007.6
20260509193521 87 0 0.0 3.0 0.00 0.00 0.00 73 1007.8
20260509193044 87 338 0.0 3.0 0.00 0.00 0.00 74 1007.9
20260509192516 86 258 0.0 1.0 0.00 0.00 0.00 75 1007.9
20260509192027 86 0 0.0 2.0 0.00 0.00 0.00 74 1007.9
20260509191548 86 0 0.0 2.0 0.00 0.00 0.00 74 1007.9
20260509191019 86 0 0.0 2.0 0.00 0.00 0.00 73 1007.9
20260509190521 86 0 0.0 3.0 0.00 0.00 0.00 74 1007.9
20260509190044 86 0 0.0 3.0 0.00 0.00 0.00 74 1008.1
20260509185518 86 11 1.0 4.0 0.00 0.00 0.00 74 1008.2
20260509185016 85 0 1.0 4.0 0.00 0.00 0.00 73 1008.3
20260509184541 85 206 1.0 2.0 0.00 0.00 0.00 77 1008.4
20260509184015 85 0 0.0 4.0 0.00 0.00 0.00 75 1008.5
20260509183516 85 0 0.0 7.0 0.00 0.00 0.00 74 1008.4
20260509183043 85 76 1.0 7.0 0.00 0.00 0.00 73 1008.5
20260509182518 86 147 3.0 7.0 0.00 0.00 0.00 73 1008.5
20260509182019 86 173 2.0 7.0 0.00 0.00 0.00 73 1008.6
20260509181542 85 107 1.0 4.0 0.00 0.00 0.00 74 1008.8
20260509181030 85 129 0.0 3.0 0.00 0.00 0.00 77 1008.8
20260509180515 84 179 0.0 2.0 0.00 0.00 0.00 76 1008.8
20260509180037 84 0 0.0 2.0 0.00 0.00 0.00 77 1008.8
20260509175515 85 155 0.0 2.0 0.00 0.00 0.00 76 1009.0
20260509175023 84 0 0.0 2.0 0.00 0.00 0.00 78 1009.0
20260509174535 84 0 0.0 2.0 0.00 0.00 0.00 79 1009.0
20260509174018 84 0 0.0 2.0 0.00 0.00 0.00 79 1009.0
20260509173518 84 0 0.0 2.0 0.00 0.00 0.00 79 1009.1
20260509173050 84 0 0.0 2.0 0.00 0.00 0.00 77 1009.1
20260509172519 84 0 0.0 2.0 0.00 0.00 0.00 78 1009.1
20260509172019 84 0 0.0 2.0 0.00 0.00 0.00 79 1009.1
20260509171541 84 162 0.0 2.0 0.00 0.00 0.00 78 1009.1
20260509171015 84 0 0.0 2.0 0.00 0.00 0.00 79 1009.1
20260509170518 83 0 0.0 3.0 0.00 0.00 0.00 79 1009.2
20260509170040 83 0 0.0 3.0 0.00 0.00 0.00 81 1009.3
20260509165518 83 355 0.0 3.0 0.00 0.00 0.00 81 1009.4
20260509165015 82 0 0.0 3.0 0.00 0.00 0.00 81 1009.4
20260509164547 82 0 0.0 3.0 0.00 0.00 0.00 80 1009.3
20260509164019 82 346 0.0 3.0 0.00 0.00 0.00 83 1009.3
20260509163516 81 0 0.0 2.0 0.00 0.00 0.00 85 1009.2
20260509163047 81 0 0.0 2.0 0.00 0.00 0.00 83 1009.2
20260509162516 80 244 1.0 2.0 0.00 0.00 0.00 84 1009.5
20260509162022 80 0 0.0 2.0 0.00 0.00 0.00 84 1009.6
20260509161535 80 0 0.0 2.0 0.00 0.00 0.00 84 1009.4
20260509161018 80 246 0.0 2.0 0.00 0.00 0.00 85 1009.5
20260509160516 80 286 0.0 6.0 0.00 0.00 0.00 88 1009.5
20260509160032 79 355 1.0 6.0 0.00 0.00 0.00 88 1009.4
20260509155515 79 168 1.0 4.0 0.00 0.00 0.00 87 1009.4
20260509155021 79 0 0.0 4.0 0.00 0.00 0.00 88 1009.5
20260509154542 78 239 2.0 5.0 0.00 0.00 0.00 89 1009.4
20260509154019 78 180 1.0 6.0 0.00 0.00 0.00 90 1009.4
20260509153515 77 144 2.0 6.0 0.00 0.00 0.00 90 1009.5
20260509153039 77 0 1.0 6.0 0.00 0.00 0.00 90 1009.6
20260509152519 77 173 2.0 6.0 0.00 0.00 0.00 90 1009.4
20260509152016 76 240 0.0 2.0 0.00 0.00 0.00 91 1009.4
20260509151538 76 157 0.0 2.0 0.00 0.00 0.00 91 1009.4
20260509151019 76 157 0.0 3.0 0.00 0.00 0.00 92 1009.5
20260509150517 76 0 0.0 3.0 0.00 0.00 0.00 92 1009.4
20260509150035 76 126 0.0 3.0 0.00 0.00 0.00 93 1009.5
20260509145516 76 0 0.0 3.0 0.00 0.00 0.00 93 1009.4
20260509145018 75 0 1.0 3.0 0.00 0.00 0.00 93 1009.3
20260509144544 75 0 0.0 3.0 0.00 0.00 0.00 94 1009.3
20260509144016 75 0 0.0 0.0 0.00 0.00 0.00 94 1009.1
20260509143516 75 0 0.0 0.0 0.00 0.00 0.00 94 1009.2
20260509143035 75 0 0.0 0.0 0.00 0.00 0.00 95 1009.1
20260509142515 75 0 0.0 0.0 0.00 0.00 0.00 95 1009.0
20260509142021 74 0 0.0 0.0 0.00 0.00 0.00 95 1008.9
20260509141546 74 0 0.0 0.0 0.00 0.00 0.00 95 1008.7
20260509141016 74 0 0.0 0.0 0.00 0.00 0.00 95 1008.8
20260509140515 74 0 0.0 0.0 0.00 0.00 0.00 95 1008.7
20260509140035 74 0 0.0 1.0 0.00 0.00 0.00 95 1009.0
20260509135520 74 0 0.0 1.0 0.00 0.00 0.00 95 1009.0
20260509135020 74 0 0.0 0.0 0.00 0.00 0.00 95 1009.2
20260509134549 74 0 0.0 0.0 0.00 0.00 0.00 96 1009.3
20260509134016 74 0 0.0 0.0 0.00 0.00 0.00 96 1009.1
20260509133516 74 0 0.0 0.0 0.00 0.00 0.00 96 1009.3
20260509133037 74 0 0.0 0.0 0.00 0.00 0.00 96 1009.4
20260509132515 74 0 0.0 0.0 0.00 0.00 0.00 96 1009.3
20260509132015 74 0 0.0 0.0 0.00 0.00 0.00 96 1009.4
20260509131552 74 0 0.0 0.0 0.00 0.00 0.00 96 1009.4
20260509131015 74 0 0.0 0.0 0.00 0.00 0.00 96 1009.4
20260509130518 73 0 0.0 0.0 0.00 0.00 0.00 96 1009.4
20260509130047 73 0 0.0 0.0 0.00 0.00 0.00 96 1009.3
20260509125516 73 0 0.0 0.0 0.00 0.00 0.00 96 1009.4
20260509125022 73 0 0.0 0.0 0.00 0.00 0.00 96 1009.4
20260509124544 73 0 0.0 0.0 0.00 0.00 0.00 96 1009.4
20260509124018 73 0 0.0 0.0 0.00 0.00 0.00 96 1009.3
20260509123518 73 0 0.0 0.0 0.00 0.00 0.00 96 1009.4
20260509123048 73 0 0.0 0.0 0.00 0.00 0.00 96 1009.4
20260509122516 73 0 0.0 0.0 0.00 0.00 0.00 96 1009.3
20260509122018 73 0 0.0 0.0 0.00 0.00 0.00 96 1009.2
20260509121537 73 0 0.0 0.0 0.00 0.00 0.00 96 1009.2
20260509121019 73 0 0.0 0.0 0.00 0.00 0.00 96 1009.1
20260509120519 73 0 0.0 0.0 0.00 0.00 0.00 96 1009.1
20260509120034 73 0 0.0 0.0 0.00 0.00 0.00 96 1009.2
20260509115515 73 0 0.0 0.0 0.00 0.01 0.00 96 1009.1
20260509115021 73 0 0.0 3.0 0.00 0.01 0.00 96 1008.9
20260509114543 73 0 0.0 3.0 0.00 0.01 0.00 96 1008.8
20260509114016 73 117 1.0 3.0 0.00 0.01 0.00 96 1008.7
20260509113516 73 121 0.0 3.0 0.00 0.01 0.00 96 1008.5
20260509113038 73 0 0.0 2.0 0.00 0.01 0.00 96 1008.6
20260509112519 72 0 0.0 0.0 0.00 0.01 0.00 95 1008.6
20260509112016 72 0 0.0 0.0 0.00 0.01 0.00 95 1008.6
20260509111535 72 0 0.0 0.0 0.00 0.01 0.00 95 1008.5
20260509111020 72 0 0.0 0.0 0.00 0.01 0.00 95 1008.6
20260509110516 72 0 0.0 0.0 0.00 0.01 0.00 95 1008.7
20260509110039 73 0 0.0 0.0 0.00 0.01 0.00 95 1008.7
20260509105516 73 0 0.0 0.0 0.00 0.01 0.00 95 1008.7
20260509105019 73 0 0.0 0.0 0.00 0.01 0.00 95 1008.4
20260509104542 73 0 0.0 0.0 0.00 0.01 0.00 95 1008.5
20260509104015 73 0 0.0 1.0 0.00 0.01 0.00 95 1008.8
20260509103515 73 0 0.0 2.0 0.00 0.01 0.00 95 1009.0
20260509103041 73 0 0.0 2.0 0.00 0.01 0.00 95 1009.0
20260509102520 73 0 0.0 0.0 0.00 0.01 0.00 95 1008.8
20260509102020 73 0 0.0 0.0 0.00 0.01 0.00 95 1008.8
20260509101538 73 0 0.0 0.0 0.00 0.01 0.00 95 1008.7
20260509101016 73 0 0.0 0.0 0.00 0.01 0.00 95 1008.5
20260509100517 73 0 0.0 0.0 0.00 0.01 0.00 95 1008.5
20260509100038 73 0 0.0 0.0 0.00 0.01 0.00 95 1008.5
20260509095515 73 0 0.0 0.0 0.00 0.01 0.00 95 1008.3
20260509095016 73 0 0.0 0.0 0.00 0.01 0.00 95 1008.1
20260509094534 73 0 0.0 0.0 0.00 0.01 0.00 95 1008.2
20260509094016 73 0 0.0 0.0 0.00 0.01 0.00 95 1008.3
20260509093520 73 0 0.0 0.0 0.00 0.01 0.00 95 1008.3
20260509093035 73 0 0.0 0.0 0.00 0.01 0.00 95 1008.3
20260509092518 73 0 0.0 0.0 0.00 0.01 0.00 95 1008.5
20260509092016 73 0 0.0 0.0 0.00 0.01 0.00 95 1008.6
20260509091538 73 0 0.0 0.0 0.00 0.01 0.00 95 1008.6
20260509091019 73 0 0.0 0.0 0.00 0.01 0.00 95 1008.5
20260509090517 73 0 0.0 0.0 0.00 0.01 0.00 96 1008.7
20260509090035 73 0 0.0 0.0 0.00 0.01 0.00 95 1008.7
20260509085517 73 0 0.0 0.0 0.00 0.01 0.00 96 1008.7
20260509085016 73 0 0.0 0.0 0.00 0.01 0.00 95 1008.7
20260509084539 73 0 0.0 0.0 0.00 0.01 0.00 95 1008.8
20260509084016 73 0 0.0 0.0 0.00 0.01 0.00 95 1008.7
20260509083521 73 0 0.0 0.0 0.00 0.01 0.00 95 1008.7
20260509083043 73 0 0.0 0.0 0.00 0.01 0.00 95 1008.6
20260509082516 73 0 0.0 0.0 0.00 0.01 0.00 95 1008.8
20260509082016 73 0 0.0 0.0 0.00 0.01 0.00 95 1008.7
20260509081541 73 0 0.0 0.0 0.00 0.01 0.00 96 1008.8
20260509081021 73 0 0.0 0.0 0.00 0.01 0.00 96 1008.9
20260509080515 73 0 0.0 0.0 0.00 0.01 0.00 96 1008.8
20260509080032 73 0 0.0 0.0 0.00 0.01 0.00 95 1008.8
20260509075517 73 0 0.0 0.0 0.00 0.01 0.00 96 1008.8
20260509075016 72 0 0.0 0.0 0.00 0.01 0.00 95 1008.8
20260509074540 72 0 0.0 0.0 0.00 0.01 0.00 95 1008.7
20260509074016 72 0 0.0 0.0 0.00 0.01 0.00 95 1008.6
20260509073516 72 0 0.0 0.0 0.00 0.01 0.00 95 1008.4
20260509073037 72 0 0.0 0.0 0.00 0.01 0.00 95 1008.5
20260509072525 72 0 0.0 1.0 0.00 0.01 0.00 95 1008.5
20260509072023 72 0 0.0 1.0 0.00 0.01 0.00 95 1008.5
20260509071538 72 0 0.0 3.0 0.00 0.01 0.00 95 1008.5
20260509071016 72 0 0.0 3.0 0.00 0.01 0.00 95 1008.6
20260509070516 72 0 0.0 3.0 0.00 0.01 0.00 95 1008.7
20260509070035 72 198 0.0 3.0 0.00 0.01 0.00 95 1008.6
20260509065515 72 0 0.0 4.0 0.00 0.01 0.00 95 1008.7
20260509065019 72 168 1.0 4.0 0.00 0.01 0.00 95 1008.6
20260509064538 72 0 1.0 4.0 0.00 0.01 0.00 95 1008.6
20260509064022 72 163 1.0 4.0 0.00 0.01 0.00 95 1008.5
20260509063516 72 211 1.0 4.0 0.00 0.01 0.00 95 1008.5
20260509063040 72 150 0.0 5.0 0.00 0.01 0.00 95 1008.5
20260509062516 72 0 1.0 5.0 0.00 0.01 0.00 95 1008.6
20260509062017 72 180 0.0 4.0 0.00 0.01 0.00 95 1008.7
20260509061537 72 0 0.0 4.0 0.00 0.01 0.00 95 1008.6
20260509061016 72 142 1.0 4.0 0.00 0.01 0.00 95 1008.9
20260509060520 72 0 0.0 3.0 0.00 0.01 0.00 95 1009.0
20260509060036 72 0 0.0 2.0 0.00 0.01 0.00 95 1009.1
20260509055516 72 0 0.0 4.0 0.00 0.01 0.00 95 1009.2
20260509055016 72 0 0.0 4.0 0.00 0.01 0.00 95 1009.1
20260509054601 72 180 0.0 4.0 0.00 0.01 0.00 95 1009.2
20260509054018 72 180 1.0 3.0 0.00 0.01 0.00 95 1009.0
20260509053521 72 167 0.0 4.0 0.00 0.01 0.00 95 1009.0
20260509053135 72 0 1.0 4.0 0.00 0.01 0.00 95 1009.1
20260509052520 72 185 0.0 2.0 0.00 0.01 0.00 95 1009.1
20260509052019 72 0 0.0 2.0 0.00 0.01 0.00 95 1009.1
20260509051542 72 0 0.0 2.0 0.00 0.01 0.00 95 1009.3
20260509051016 72 175 0.0 3.0 0.00 0.01 0.00 95 1009.2
20260509050516 72 112 0.0 5.0 0.00 0.01 0.00 94 1009.1
20260509050045 72 165 1.0 5.0 0.00 0.01 0.00 95 1009.1
20260509045519 72 158 1.0 5.0 0.00 0.01 0.01 94 1009.3
20260509045018 72 0 0.0 5.0 0.00 0.01 0.01 95 1009.2
20260509044534 72 0 1.0 5.0 0.00 0.01 0.01 94 1009.1
20260509044020 72 147 1.0 4.0 0.00 0.01 0.01 94 1009.0
20260509043517 72 162 1.0 5.0 0.00 0.01 0.01 94 1009.0
20260509043035 72 125 1.0 5.0 0.00 0.01 0.01 94 1009.0
20260509042519 72 171 1.0 4.0 0.00 0.01 0.01 94 1008.9
20260509042019 72 156 0.0 4.0 0.00 0.01 0.01 94 1009.0
20260509041535 72 156 1.0 4.0 0.00 0.01 0.01 94 1009.1
20260509041017 72 173 1.0 3.0 0.00 0.01 0.01 94 1009.1
20260509040519 72 190 1.0 4.0 0.00 0.01 0.01 94 1009.1
20260509040037 72 0 0.0 4.0 0.00 0.01 0.01 94 1009.0
20260509035516 72 160 0.0 3.0 0.00 0.01 0.01 94 1009.0
20260509035016 72 0 0.0 8.0 0.00 0.01 0.01 94 1009.0
20260509034535 72 0 0.0 9.0 0.00 0.01 0.01 94 1009.0
20260509034017 72 0 1.0 9.0 0.00 0.01 0.01 94 1009.1
20260509033519 72 175 1.0 5.0 0.00 0.01 0.01 94 1009.2
20260509033032 72 200 1.0 4.0 0.00 0.01 0.01 94 1008.8
20260509032516 72 162 1.0 6.0 0.00 0.01 0.01 94 1008.9
20260509032018 72 192 2.0 6.0 0.00 0.01 0.01 93 1008.7
20260509031536 72 0 1.0 4.0 0.00 0.01 0.01 93 1008.8
20260509031017 72 192 1.0 4.0 0.00 0.01 0.01 93 1008.8
20260509030517 72 174 1.0 4.0 0.00 0.01 0.01 93 1008.8
20260509030042 72 0 0.0 3.0 0.00 0.01 0.01 93 1008.6
20260509025518 72 0 0.0 3.0 0.00 0.01 0.01 93 1008.4
20260509025016 72 0 0.0 4.0 0.00 0.01 0.01 93 1008.5
20260509024537 72 0 1.0 4.0 0.00 0.01 0.01 92 1008.3
20260509024019 72 128 0.0 4.0 0.00 0.01 0.01 92 1008.2
20260509023516 73 0 0.0 2.0 0.00 0.01 0.01 92 1008.3
20260509023045 73 0 0.0 2.0 0.00 0.01 0.01 92 1008.4
20260509022516 73 0 0.0 2.0 0.00 0.01 0.01 92 1008.5
20260509022019 73 0 0.0 2.0 0.00 0.01 0.01 91 1008.5
20260509021532 73 0 0.0 1.0 0.00 0.01 0.01 91 1008.4
20260509021018 73 0 0.0 2.0 0.00 0.01 0.01 91 1008.3
20260509020515 73 0 0.0 2.0 0.00 0.01 0.01 91 1008.4
20260509020041 73 177 0.0 4.0 0.00 0.01 0.01 90 1008.5
20260509015519 73 0 0.0 4.0 0.00 0.01 0.01 90 1008.5
20260509015019 73 0 0.0 6.0 0.00 0.01 0.01 89 1008.3
20260509014538 74 0 1.0 6.0 0.00 0.01 0.01 89 1008.4
20260509014018 74 206 1.0 3.0 0.00 0.01 0.01 89 1008.4
20260509013518 74 158 0.0 4.0 0.00 0.01 0.01 89 1008.4
20260509013034 74 0 1.0 4.0 0.00 0.01 0.01 89 1008.5
20260509012518 74 190 0.0 4.0 0.00 0.01 0.01 89 1008.2
20260509012026 74 0 0.0 4.0 0.00 0.01 0.01 89 1008.1
20260509011539 74 0 0.0 4.0 0.00 0.01 0.01 89 1008.0
20260509011020 74 163 0.0 4.0 0.00 0.01 0.01 88 1008.0
20260509010519 74 200 1.0 4.0 0.00 0.01 0.01 88 1008.0
20260509010035 74 0 1.0 4.0 0.00 0.01 0.01 88 1007.9
20260509005521 74 143 1.0 4.0 0.00 0.01 0.01 88 1007.8
20260509005019 74 192 1.0 3.0 0.00 0.01 0.01 88 1007.8
20260509004541 75 224 0.0 1.0 0.00 0.01 0.01 88 1007.9
20260509004019 75 0 0.0 3.0 0.00 0.01 0.01 88 1007.9
20260509003519 75 0 0.0 3.0 0.00 0.01 0.01 87 1008.0
20260509003054 75 82 0.0 3.0 0.00 0.01 0.01 87 1008.0
20260509002518 75 167 1.0 3.0 0.00 0.01 0.01 87 1008.1
20260509002018 75 0 0.0 3.0 0.00 0.01 0.01 87 1008.2
20260509001534 75 199 1.0 3.0 0.00 0.01 0.01 87 1008.1
20260509001019 75 113 0.0 4.0 0.00 0.01 0.01 87 1008.2
20260509000524 75 139 1.0 4.0 0.00 0.01 0.01 86 1008.1
20260509000044 76 0 1.0 4.0 0.00 0.01 0.01 86 1008.1
20260508235519 76 187 0.0 4.0 0.00 0.01 0.01 86 1008.2
20260508235018 76 0 0.0 4.0 0.00 0.01 0.01 86 1008.3
20260508234535 76 205 0.0 4.0 0.00 0.01 0.01 85 1008.2
20260508234020 76 22 1.0 5.0 0.00 0.01 0.01 86 1008.2
20260508233519 76 0 0.0 5.0 0.00 0.01 0.01 85 1008.2
20260508233036 76 64 0.0 5.0 0.00 0.01 0.01 85 1008.2
20260508232519 76 199 1.0 4.0 0.00 0.01 0.01 85 1008.2
20260508232019 77 183 1.0 4.0 0.00 0.01 0.01 85 1008.2
20260508231539 77 186 1.0 5.0 0.00 0.01 0.01 84 1008.1
20260508231017 77 163 1.0 5.0 0.00 0.01 0.01 84 1008.1
20260508230518 77 175 1.0 4.0 0.00 0.01 0.01 84 1008.2
20260508230034 77 207 1.0 3.0 0.00 0.01 0.01 84 1008.1
20260508225521 77 167 1.0 5.0 0.00 0.01 0.01 84 1008.1
20260508225018 77 0 1.0 5.0 0.00 0.01 0.01 83 1008.1
20260508224536 77 146 0.0 4.0 0.00 0.01 0.01 83 1008.1
20260508224017 78 161 1.0 4.0 0.00 0.01 0.01 83 1008.1
20260508223521 78 0 1.0 4.0 0.00 0.01 0.01 83 1008.0
20260508223031 78 229 1.0 4.0 0.00 0.01 0.01 83 1008.0
20260508222516 78 0 0.0 3.0 0.00 0.01 0.01 83 1007.9
20260508222017 78 0 1.0 3.0 0.00 0.01 0.01 83 1008.1
20260508221536 78 0 0.0 2.0 0.00 0.01 0.01 82 1008.1
20260508221017 78 0 0.0 3.0 0.00 0.01 0.01 82 1008.2
20260508220521 78 0 0.0 4.0 0.00 0.01 0.01 81 1008.1
20260508220035 78 0 1.0 4.0 0.00 0.01 0.01 81 1008.2
20260508215516 79 211 0.0 3.0 0.00 0.01 0.01 81 1008.3
20260508215020 78 355 0.0 3.0 0.00 0.01 0.01 82 1008.1
20260508214532 78 0 0.0 8.0 0.00 0.01 0.01 81 1008.1
20260508214017 78 176 0.0 8.0 0.00 0.01 0.01 81 1008.2
20260508213518 78 196 0.0 4.0 0.00 0.01 0.01 82 1008.1
20260508213035 78 5 1.0 5.0 0.00 0.01 0.01 82 1008.2